Overview Statistics Trail Chart Weather Telemetry Raw packets
 

This is the latest recevied weather packets stored in our database for station/object KV9E. If no packets are shown the sender has not sent any weather packets the latest 10 day(s).

<< 8 9 10 11 12 13 14 >>
Time Temp. Humidity Pressure Rain* Wind** Luminosity Snow
1788560049 31.11° C 64% 1015 hPa 0 mm - 150 W/m² -
1788559745 30.56° C 68% 1015 hPa 0 mm - 161 W/m² -
1788559444 31.11° C 65% 1014.8 hPa 0 mm - 54 W/m² -
1788559140 31.67° C 62% 1015 hPa 0 mm - 57 W/m² -
1788558834 32.22° C 60% 1015 hPa 0 mm - 179 W/m² -
1788558530 31.67° C 61% 1014.9 hPa 0 mm - 189 W/m² -
1788558226 32.22° C 61% 1015 hPa 0 mm - 219 W/m² -
1788557924 31.67° C 62% 1015 hPa 0 mm - 232 W/m² -
1788557619 31.11° C 61% 1015 hPa 0 mm - 257 W/m² -
1788557315 30.56° C 61% 1014.9 hPa 0 mm - 285 W/m² -
1788557010 29.44° C 69% 1015.1 hPa 0 mm - 137 W/m² -
1788556705 28.89° C 69% 1015 hPa 0 mm - 147 W/m² -
1788556400 28.89° C 70% 1015.1 hPa 0 mm - 98 W/m² -
1788556094 28.89° C 70% 1015.1 hPa 0 mm - 83 W/m² -
1788555789 29.44° C 69% 1015.1 hPa 0 mm - 62 W/m² -
1788555485 29.44° C 67% 1015.2 hPa 0 mm - 58 W/m² -
1788555181 30° C 67% 1015.3 hPa 0 mm - 73 W/m² -
1788554877 30° C 66% 1015.4 hPa 0 mm - 73 W/m² -
1788554573 30.56° C 64% 1015.5 hPa 0 mm - 67 W/m² -
1788554269 31.11° C 63% 1015.6 hPa 0 mm - 80 W/m² -
1788553965 32.22° C 61% 1015.8 hPa 0 mm - 73 W/m² -
1788553661 32.78° C 58% 1015.5 hPa 0 mm - 85 W/m² -
1788553357 35° C 56% 1015.2 hPa 0 mm - 157 W/m² -
1788553063 35.56° C 54% 1015.5 hPa 0 mm - 454 W/m² -
1788552746 35° C 52% 1015.6 hPa 0 mm - 488 W/m² -

* Rain latest hour (hover to see other rain measurements)
** Current wind speed in m/s (hover to see current wind gust speed)